Date,TemperatureHighF,TemperatureAvgF,TemperatureLowF,DewpointHighF,DewpointAvgF,DewpointLowF,HumidityHigh,HumidityAvg,HumidityLow,PressureMaxIn,PressureMinIn,WindSpeedMaxMPH,WindSpeedAvgMPH,GustSpeedMaxMPH,PrecipitationSumIn
2013-2-1,41.7,29.3,20.8,32.6,16.8,11.4,83,60,44,30.44,30.05,15,1,17,0.00
2013-2-2,36.1,28.2,20.8,29.8,22.3,14.4,85,78,67,30.39,30.09,13,1,15,0.03
2013-2-3,49.5,36.4,27.3,37.4,29.1,22.5,88,76,52,30.18,30.02,15,1,17,0.04
2013-2-4,46.6,35.2,24.4,32.0,27.1,20.8,88,73,55,30.17,29.99,6,0,8,0.00
2013-2-5,60.1,46.6,38.5,43.7,37.2,30.6,86,71,48,30.06,29.95,7,1,8,0.00
2013-2-6,63.1,45.0,30.9,41.0,33.9,28.1,89,69,34,30.22,30.05,13,1,38,0.00
2013-2-7,52.7,45.6,39.2,41.4,37.0,32.9,83,73,55,30.16,29.96,3,0,3,0.00
2013-2-8,55.0,45.1,37.9,45.8,38.0,29.7,89,77,57,30.29,29.92,16,1,18,0.09
2013-2-9,56.3,41.6,28.0,33.0,28.3,23.2,84,61,32,30.37,30.24,4,1,7,0.00
2013-2-10,61.9,45.9,36.9,44.7,36.5,27.7,89,72,36,30.25,30.01,12,1,23,0.42
2013-2-11,56.8,50.4,40.6,51.7,43.4,34.5,89,78,48,30.15,30.00,11,1,15,0.00
2013-2-12,54.7,44.1,35.4,38.2,34.2,31.3,87,70,44,30.19,29.88,12,0,13,0.02
2013-2-13,47.3,41.6,33.4,43.3,37.1,29.6,89,84,76,30.02,29.72,9,1,10,0.17
2013-2-14,55.9,43.3,33.8,39.1,34.7,30.2,88,73,50,30.10,30.01,10,1,12,0.00
2013-2-15,54.3,40.4,30.4,41.8,32.8,26.5,89,75,58,30.13,30.04,10,1,12,0.00
2013-2-16,41.2,33.1,28.2,28.8,20.3,11.7,82,60,42,30.18,30.06,8,2,11,0.00
2013-2-17,45.0,31.8,19.6,19.4,15.4,11.3,75,53,33,30.30,30.17,8,1,10,0.00
2013-2-18,58.8,42.1,23.4,33.0,25.1,16.5,77,54,36,30.33,30.00,18,2,21,0.00
2013-2-19,54.5,44.3,37.0,43.4,30.0,18.2,88,61,31,30.22,29.96,19,2,22,0.26
2013-2-20,41.4,32.6,24.4,21.0,17.7,15.2,76,56,36,30.29,30.20,4,0,5,0.00
2013-2-21,52.7,38.1,25.2,35.7,23.9,16.5,87,60,31,30.25,29.99,8,1,9,0.59
2013-2-22,49.6,44.7,38.8,45.0,40.8,35.3,89,86,81,30.09,30.01,7,0,8,0.10
2013-2-23,61.5,48.7,40.3,48.7,43.1,35.8,89,82,59,30.07,29.86,7,1,8,0.02
2013-2-24,58.8,42.4,28.9,35.8,29.0,25.0,89,63,32,30.11,29.95,6,1,7,0.00
2013-2-25,59.2,45.0,30.9,42.6,31.3,24.2,79,61,39,30.07,29.78,10,1,12,0.00
2013-2-26,54.1,46.5,40.8,45.3,41.4,35.1,89,82,66,29.79,29.52,20,2,24,0.62
2013-2-27,49.6,42.5,39.6,36.9,34.2,32.1,81,72,60,29.91,29.74,11,2,22,0.00
2013-2-28,40.8,37.9,35.8,32.1,28.0,26.0,78,67,60,30.04,29.86,10,1,11,0.00